STARLINK-11169, 60064

Orbit data source: Space-Track

STARLINK-11169, 60064 is a payload satellite owned by SpaceX/Seattle (US) in LEO that was launched on Wed, 19 Jun 2024 UTC via an FALCON 9 launch vehicle from the Air Force Western Test Range (AFWTR). Payload-class satellites include a variety of spacecraft equipped with specific instruments for various scientific and technological missions. These include communications satellites like Starlink; space stations such as the ISS; scientific satellites like the Hubble; Earth observation satellites from companies like Planet Labs, Umbra, and HawkEye 360; GPS; miniature CubeSats for education and research; and military/defense satellites.

Loading next visibility...
Identifier
60064, 2024-113F
Orbit
LEO
Last TLE update
8 hours ago
Origin
Manufacturer
SpaceX/Seattle
Mission
Operational Commercial Communications
Bus & Motor
STARLINK V2M, Unknown motor
Mass
730 kg wet, ~700 kg dry
Launch date (UTC)
2024-06-19 (11 months ago)
Launch vehicle
FALCON 9
Launch site
Air Force Western Test Range (AFWTR)
Object type
Payload
Rocket body
Debris
Shape & HBR
Box + 2 Pan, 29 m
Radar Cross Section
36.964 m², Large (>1 m²)

Expand to show TLE details & history

TLE from 8 hours ago
0 STARLINK-11169
1 60064U 24113F   25131.58105081  .00001031  00000-0  13353-4 0  9991
2 60064  53.1587 240.3478 0001048  75.5520 284.5614 15.69729676 52164
Epoch: 2025-05-11T13:56Z
Definitive object data (Epoch: 2025-05-11T13:56:42.789Z)
Latitude
-0.00006°
Longitude
161.56303°
Altitude
360.408 km
Speed
7.694 km/s
True Right ascension
16h 01m 23s
True Declination
0° 00' 00"
Sunlit
Object was in full shadow at TLE epoch
Visualization TLE readout
Latitude
-22.88154°
Longitude
141.6923°
Altitude
366.386 km
Speed
7.69 km/s
Apparent Right ascension
16h 02m 49s
Apparent Declination
-33° 07' 22"
Sunlit
Object is in full shadow
Visualization observer readout
Local Sidereal Time
05:46:56
Azimuth
80.155° E
Elevation
-68.098°
Doppler factor
1
Orbital elements
Apogee altitude
360.637 km
Perigee altitude
359.225 km
Semi-major axis
6,738.068 km
Eccentricity
0.0001048
Inclination
53.1587°
RAAN
240.3478°
Arg. of periapsis
75.552°
True anomaly
284.54978°
Mean anomaly
284.5614°
Eccentric anomaly
284.55559°
Mean motion
3.9241 °/min
BSTAR
0.000013353
Orbital period
91.74 mins
Loading maneuver chart data...
Loading SW <> Apogee altitude chart data...
Loading historical data...
Loading historical data...
Loading historical data...
Loading historical data...
Loading historical data...
Loading historical data...
Loading historical data...

STARLINK-11169 Visibility forecast

Observer location: undefined°, undefined°

Span
Click to sort rows by Start time (UTC) header in descending order
Start Az.
Max El. time (UTC)
Max El. Az.
Max El.
End time (UTC)
End Az.
5 mins2025-05-12 09:59:45.700Z232.502° WSW2025-05-12 10:01:45.700Z243.756° WSW40.125°2025-05-12 10:04:45.700Z47.856° ENE
4 mins2025-05-12 16:25:45.700Z329.1° NNW2025-05-12 16:26:45.700Z13.485° NNE39.872°2025-05-12 16:29:45.700Z118.655° SE
|